Showing default

OPS 9323 (IDSCS 10), 2650

Orbit data source: Space-Track

OPS 9323 (IDSCS 10), 2650 is a payload satellite owned by USAF SSD (US) in GEO that was launched on Wed, 18 Jan 1967 UTC via a TITAN IIIC launch vehicle from the Air Force Eastern Test Range (AFETR). Payload-class satellites include a variety of spacecraft equipped with specific instruments for various scientific and technological missions. These include communications satellites like Starlink; space stations such as the ISS; scientific satellites like the Hubble; Earth observation satellites from companies like Planet Labs, Umbra, and HawkEye 360; GPS; miniature CubeSats for education and research; and military/defense satellites.

Loading next visibility...
Identifier
2650, 1967-003C
Orbit
GEO
Country
Flag of USUS
Related business
Manufacturer
Philco-Ford WDL
Mission
Non-operational spacecraft
Bus & Motor
IDCSP, Unknown motor
Mass
45 kg wet, 45 kg dry
Launch date (UTC)
1967-01-18 (59 years ago)
Launch vehicle
TITAN IIIC
Launch site
Air Force Eastern Test Range (AFETR)
Object type
Payload
Rocket body
Debris
Shape & HBR
Unknown
Radar Cross Section
Medium (>0.1 m² and <1 m²)

Expand to show TLE details & history
Last TLE update: 21 hours ago

TLE from 21 hours ago
0 OPS 9323 (IDSCS 10)
1  2650U 67003C   25353.28076538 -.00000095  00000-0  00000+0 0  9990
2  2650   7.9554  46.4133 0033024 110.8188 267.2622  1.08222270138503
Epoch: 2025-12-19T06:44Z
TLE epoch observation values (Epoch: 2025-12-19T06:44:18.128Z)
Latitude
2.43146°
Longitude
-125.24918°
Altitude
33,700.901 km
Speed
3.153 km/s
True Right ascension
04h 15m 48s
True Declination
2° 25' 44"
Sunlit
Object was in daylight at epoch
Visualization orbit readout
Latitude
Unknown
Longitude
Unknown
Altitude
Unknown
Speed
Unknown
Apparent Right ascension
Unknown
Apparent Declination
Unknown
Sunlit
N/A
Visualization observer readout
Local Sidereal Time
02:38:05
Azimuth
Unknown
Elevation
Unknown
Doppler factor
Unknown
Orbital elements
Apogee altitude
33,828.81 km
Perigee altitude
33,564.126 km
Semi-major axis
40,074.605 km
Eccentricity
0.0033
Inclination
7.9554°
RAAN
46.4133°
Arg. of periapsis
110.8188°
True anomaly
266.88428°
Mean anomaly
267.2622°
Eccentric anomaly
267.07323°
Mean motion
0.27054 °/min
Orbital period
1,330.65 mins
BSTAR
0
Loading maneuver chart data...
Computing Atmospheric mass density...
Loading historical data...
Loading historical data...
Loading historical data...
Loading historical data...
Loading historical data...
Loading historical data...
Loading historical data...

Documentation

Showing up to 5 results
|